,,PA_Meas_PMT16A,,PR_Meas_QMR101_102,,RH_Meas_QMH101,,SR_Meas_QMS101,,TA_Meas_QMH101,,GenWind,,GenWind,
time,status,PA,status,PR,status,RH,status,SR,status,TA,status,DirAvg,status,SpdAvg,
2015-11-10, 07:00:04,VALID,916.969,VALID,0,VALID,100.69,VALID,78.6469,VALID,20.0148,VALID,145,VALID,0,
2015-11-10, 07:10:04,VALID,917.085,VALID,0,VALID,100.675,VALID,116.789,VALID,20.2083,VALID,76,VALID,0,
2015-11-10, 07:11:04,VALID,917.069,VALID,0,VALID,100.675,VALID,138.921,VALID,20.2684,VALID,79,VALID,0,
2015-11-10, 07:12:04,VALID,917.077,VALID,0,VALID,100.66,VALID,134.946,VALID,20.3269,VALID,79,VALID,0,
2015-11-10, 07:13:04,VALID,917.093,VALID,0,VALID,100.644,VALID,158.046,VALID,20.4634,VALID,79,VALID,0,
2015-11-10, 07:14:04,VALID,917.085,VALID,0,VALID,100.614,VALID,156.757,VALID,20.4244,VALID,79,VALID,0,
2015-11-10, 07:15:04,VALID,917.123,VALID,0,VALID,100.614,VALID,159.98,VALID,20.4829,VALID,79,VALID,0,
2015-11-10, 07:16:04,VALID,917.122,VALID,0,VALID,100.637,VALID,131.186,VALID,20.4829,VALID,79,VALID,0,
2015-11-10, 07:17:04,VALID,917.143,VALID,0,VALID,100.599,VALID,119.152,VALID,20.5219,VALID,79,VALID,0,
2015-11-10, 07:18:04,VALID,917.148,VALID,0,VALID,100.583,VALID,115.714,VALID,20.6179,VALID,79,VALID,0,
2015-11-10, 07:19:04,VALID,917.179,VALID,0,VALID,100.576,VALID,116.574,VALID,20.6585,VALID,130,VALID,0,
2015-11-10, 07:20:04,VALID,917.224,VALID,0,VALID,100.614,VALID,119.045,VALID,20.5999,VALID,131,VALID,0,
2015-11-10, 07:21:04,VALID,917.232,VALID,0,VALID,100.606,VALID,122.161,VALID,20.5594,VALID,139,VALID,0,
2015-11-10, 07:22:04,VALID,917.226,VALID,0,VALID,100.614,VALID,129.252,VALID,20.5399,VALID,142,VALID,0,
2015-11-10, 07:23:04,VALID,917.248,VALID,0,VALID,100.652,VALID,139.244,VALID,20.5219,VALID,149,VALID,0,
2015-11-10, 07:24:04,VALID,917.275,VALID,0,VALID,100.66,VALID,147.302,VALID,20.5219,VALID,149,VALID,0,
2015-11-10, 07:25:04,VALID,917.275,VALID,0,VALID,100.644,VALID,147.624,VALID,20.5594,VALID,149,VALID,0,
2015-11-10, 07:26:04,VALID,917.282,VALID,0,VALID,100.637,VALID,139.459,VALID,20.5414,VALID,164,VALID,0,
2015-11-10, 07:27:04,VALID,917.246,VALID,0,VALID,100.644,VALID,127.21,VALID,20.5804,VALID,164,VALID,0,
2015-11-10, 07:28:04,VALID,917.27,VALID,0,VALID,100.621,VALID,115.177,VALID,20.5789,VALID,164,VALID,0,
2015-11-10, 07:29:04,VALID,917.294,VALID,0,VALID,100.644,VALID,105.185,VALID,20.5609,VALID,160,VALID,0,
2015-11-10, 07:30:04,VALID,917.283,VALID,0,VALID,100.644,VALID,101.747,VALID,20.5804,VALID,160,VALID,0,
2015-11-10, 07:31:04,VALID,917.267,VALID,0,VALID,100.629,VALID,105.83,VALID,20.5984,VALID,165,VALID,0,
2015-11-10, 07:32:04,VALID,917.297,VALID,0,VALID,100.599,VALID,109.375,VALID,20.6959,VALID,165,VALID,0,
2015-11-10, 07:33:04,VALID,917.306,VALID,0,VALID,100.599,VALID,124.632,VALID,20.7154,VALID,165,VALID,0,
2015-11-10, 07:34:04,VALID,917.31,VALID,0,VALID,100.629,VALID,133.12,VALID,20.6569,VALID,172,VALID,0,
2015-11-10, 07:35:04,VALID,917.361,VALID,0,VALID,100.621,VALID,132.905,VALID,20.678,VALID,125,VALID,0,
2015-11-10, 07:36:04,VALID,917.384,VALID,0,VALID,100.644,VALID,129.467,VALID,20.6179,VALID,137,VALID,0,
2015-11-10, 07:37:04,VALID,917.42,VALID,0,VALID,100.667,VALID,118.185,VALID,20.5968,VALID,137,VALID,0,
2015-11-10, 07:45:04,VALID,917.589,VALID,0,VALID,100.621,VALID,105.722,VALID,20.7739,VALID,163,VALID,0,
2015-11-10, 07:46:04,VALID,917.613,VALID,0,VALID,100.629,VALID,110.342,VALID,20.8714,VALID,163,VALID,0,
2015-11-10, 07:47:04,VALID,917.632,VALID,0,VALID,100.606,VALID,112.061,VALID,20.912,VALID,163,VALID,0,
2015-11-10, 07:48:04,VALID,917.619,VALID,0,VALID,100.591,VALID,108.945,VALID,20.9901,VALID,163,VALID,0,
2015-11-10, 07:49:04,VALID,917.635,VALID,0,VALID,100.576,VALID,102.177,VALID,21.0291,VALID,163,VALID,0,
2015-11-10, 08:10:04,VALID,917.943,VALID,0,VALID,100.66,VALID,103.251,VALID,20.9901,VALID,163,VALID,0,
2015-11-10, 08:11:04,VALID,917.973,VALID,0,VALID,100.667,VALID,113.028,VALID,20.9706,VALID,163,VALID,0,
2015-11-10, 08:12:04,VALID,917.945,VALID,0,VALID,100.69,VALID,122.913,VALID,20.9105,VALID,163,VALID,0,
2015-11-10, 08:13:04,VALID,917.953,VALID,0,VALID,100.713,VALID,129.896,VALID,20.9511,VALID,163,VALID,0,
2015-11-10, 08:14:04,VALID,917.914,VALID,0,VALID,100.713,VALID,135.054,VALID,20.969,VALID,163,VALID,0,
2015-11-10, 08:15:04,VALID,917.928,VALID,0,VALID,100.675,VALID,140.211,VALID,21.008,VALID,163,VALID,0,
2015-11-10, 08:16:04,VALID,917.93,VALID,0,VALID,100.652,VALID,150.418,VALID,21.0876,VALID,163,VALID,0,
2015-11-10, 08:17:04,VALID,917.958,VALID,0,VALID,100.637,VALID,167.501,VALID,21.1445,VALID,163,VALID,0,
2015-11-10, 08:18:04,VALID,917.935,VALID,0,VALID,100.621,VALID,188.022,VALID,21.2242,VALID,163,VALID,0,
2015-11-10, 08:19:04,VALID,917.978,VALID,0,VALID,100.621,VALID,204.353,VALID,21.1836,VALID,163,VALID,0,
2015-11-10, 08:20:04,VALID,917.968,VALID,0,VALID,100.652,VALID,212.519,VALID,21.1039,VALID,163,VALID,0,
2015-11-10, 08:21:04,VALID,917.982,VALID,0,VALID,100.675,VALID,226.056,VALID,21.1445,VALID,163,VALID,0,
2015-11-10, 08:22:04,VALID,917.974,VALID,0,VALID,100.66,VALID,231.321,VALID,21.2632,VALID,163,VALID,0,
2015-11-10, 08:23:04,VALID,917.969,VALID,0,VALID,100.614,VALID,250.016,VALID,21.3803,VALID,163,VALID,0,
2015-11-10, 08:24:04,VALID,918.002,VALID,0,VALID,100.591,VALID,296.323,VALID,21.5152,VALID,174,VALID,0,
2015-11-10, 08:25:04,VALID,917.964,VALID,0,VALID,100.568,VALID,411.607,VALID,21.6128,VALID,174,VALID,0,
2015-11-10, 08:26:04,VALID,918.012,VALID,0,VALID,100.576,VALID,307.604,VALID,21.5347,VALID,174,VALID,0,
2015-11-10, 08:27:04,VALID,917.982,VALID,0,VALID,100.667,VALID,321.142,VALID,21.377,VALID,174,VALID,0,
2015-11-10, 08:28:04,VALID,918.003,VALID,0,VALID,100.728,VALID,309.001,VALID,21.3396,VALID,222,VALID,0,
2015-11-10, 08:29:04,VALID,917.978,VALID,0,VALID,100.728,VALID,288.802,VALID,21.4567,VALID,217,VALID,0,
2015-11-10, 08:30:04,VALID,917.983,VALID,0,VALID,100.782,VALID,263.983,VALID,21.3981,VALID,250,VALID,0,
2015-11-10, 08:31:04,VALID,917.988,VALID,0,VALID,100.82,VALID,278.38,VALID,21.377,VALID,236,VALID,0,
2015-11-10, 08:32:04,VALID,917.999,VALID,0,VALID,100.804,VALID,437.823,VALID,21.4941,VALID,237,VALID,0,
2015-11-10, 08:33:04,VALID,917.976,VALID,0,VALID,100.736,VALID,381.631,VALID,21.6128,VALID,263,VALID,0,
2015-11-10, 08:34:04,VALID,917.982,VALID,0,VALID,100.728,VALID,413.863,VALID,21.6891,VALID,255,VALID,0,
2015-11-10, 08:35:04,VALID,918.006,VALID,0,VALID,100.698,VALID,467.691,VALID,21.8842,VALID,320,VALID,0,
2015-11-10, 08:36:04,VALID,918.004,VALID,0,VALID,100.782,VALID,435.459,VALID,21.8062,VALID,313,VALID,0,
2015-11-10, 08:37:04,VALID,918.042,VALID,0,VALID,100.766,VALID,523.131,VALID,21.9428,VALID,307,VALID,0,
2015-11-10, 08:38:04,VALID,918.096,VALID,0,VALID,100.774,VALID,532.693,VALID,22.0403,VALID,287,VALID,0,
2015-11-10, 08:39:04,VALID,918.11,VALID,0,VALID,100.827,VALID,539.032,VALID,22.0598,VALID,288,VALID,0,
2015-11-10, 08:40:04,VALID,918.12,VALID,0,VALID,100.812,VALID,524.098,VALID,22.1184,VALID,247,VALID,0,
2015-11-10, 08:41:04,VALID,918.14,VALID,0,VALID,100.812,VALID,538.602,VALID,22.3152,VALID,332,VALID,0,
2015-11-10, 08:42:04,VALID,918.142,VALID,0,VALID,100.888,VALID,423.426,VALID,22.2957,VALID,258,VALID,0,
2015-11-10, 08:43:04,VALID,918.128,VALID,0,VALID,100.942,VALID,388.507,VALID,22.333,VALID,257,VALID,0,
2015-11-10, 08:44:04,VALID,918.124,VALID,0,VALID,100.987,VALID,618.539,VALID,22.3899,VALID,263,VALID,0,
2015-11-10, 08:45:04,VALID,918.103,VALID,0,VALID,100.972,VALID,598.555,VALID,22.4874,VALID,231,VALID,0,
2015-11-10, 08:46:04,VALID,918.111,VALID,0,VALID,100.987,VALID,515.18,VALID,22.624,VALID,201,VALID,0.116797,
2015-11-10, 08:47:04,VALID,918.144,VALID,0,VALID,101.079,VALID,578.033,VALID,22.7216,VALID,219,VALID,0.00078125,
2015-11-10, 08:48:04,VALID,918.119,VALID,0,VALID,101.193,VALID,445.236,VALID,22.7216,VALID,208,VALID,0.0769531,
2015-11-10, 08:49:04,VALID,918.15,VALID,0,VALID,101.239,VALID,406.342,VALID,22.7623,VALID,197,VALID,0,
2015-11-10, 08:50:04,VALID,918.158,VALID,0,VALID,101.262,VALID,370.565,VALID,22.8404,VALID,170,VALID,0,
2015-11-10, 08:51:04,VALID,918.166,VALID,0,VALID,101.376,VALID,495.948,VALID,22.7818,VALID,214,VALID,0,
2015-11-10, 08:52:04,VALID,918.148,VALID,0,VALID,101.308,VALID,401.615,VALID,22.9185,VALID,201,VALID,0,
2015-11-10, 08:53:04,VALID,918.159,VALID,0,VALID,101.262,VALID,263.553,VALID,23.1136,VALID,201,VALID,0,
2015-11-10, 08:54:04,VALID,918.139,VALID,0,VALID,101.491,VALID,224.982,VALID,23.0551,VALID,321,VALID,0,
2015-11-10, 08:55:04,VALID,918.153,VALID,0,VALID,101.544,VALID,206.717,VALID,22.9965,VALID,227,VALID,0,
2015-11-10, 08:56:04,VALID,918.155,VALID,0,VALID,101.742,VALID,206.394,VALID,22.8404,VALID,269,VALID,0,
2015-11-10, 08:57:04,VALID,918.116,VALID,0,VALID,101.788,VALID,214.023,VALID,22.7801,VALID,273,VALID,0,
2015-11-10, 08:58:04,VALID,918.108,VALID,0,VALID,102.009,VALID,214.13,VALID,22.6257,VALID,257,VALID,0,
2015-11-10, 08:59:04,VALID,918.088,VALID,0,VALID,102.047,VALID,215.957,VALID,22.4679,VALID,226,VALID,0,
2015-11-10, 09:00:04,VALID,918.103,VALID,0,VALID,102.039,VALID,227.99,VALID,22.5069,VALID,227,VALID,0,
2015-11-10, 09:01:04,VALID,918.126,VALID,0,VALID,102.055,VALID,251.412,VALID,22.5655,VALID,228,VALID,0,
2015-11-10, 09:02:04,VALID,918.146,VALID,0,VALID,102.146,VALID,272.148,VALID,22.5672,VALID,242,VALID,0,
2015-11-10, 09:03:04,VALID,918.119,VALID,0,VALID,102.283,VALID,291.38,VALID,22.4679,VALID,260,VALID,0,
2015-11-10, 09:04:04,VALID,918.164,VALID,0,VALID,102.314,VALID,272.363,VALID,22.4891,VALID,261,VALID,0,
2015-11-10, 09:05:04,VALID,918.184,VALID,0,VALID,102.299,VALID,321.786,VALID,22.6045,VALID,272,VALID,0,
2015-11-10, 09:06:04,VALID,918.173,VALID,0,VALID,102.222,VALID,366.697,VALID,22.7801,VALID,297,VALID,0,
2015-11-10, 09:07:04,VALID,918.176,VALID,0,VALID,102.36,VALID,334.572,VALID,22.8972,VALID,298,VALID,0,
2015-11-10, 09:08:04,VALID,918.195,VALID,0,VALID,102.398,VALID,406.235,VALID,23.0143,VALID,3,VALID,0,
2015-11-10, 09:09:04,VALID,918.222,VALID,0,VALID,102.459,VALID,424.822,VALID,23.1899,VALID,21,VALID,0,
2015-11-10, 09:10:04,VALID,918.235,VALID,0,VALID,102.558,VALID,432.128,VALID,23.3283,VALID,21,VALID,0,
2015-11-10, 09:11:04,VALID,918.207,VALID,0,VALID,102.825,VALID,464.146,VALID,23.3283,VALID,309,VALID,0,
2015-11-10, 09:12:04,VALID,918.237,VALID,0,VALID,102.787,VALID,410.748,VALID,23.3461,VALID,281,VALID,0,
2015-11-10, 09:13:04,VALID,918.242,VALID,0,VALID,102.596,VALID,387.433,VALID,23.4454,VALID,2,VALID,0,
2015-11-10, 09:14:04,VALID,918.232,VALID,0,VALID,102.177,VALID,356.06,VALID,23.4845,VALID,351,VALID,0,
2015-11-10, 09:15:04,VALID,918.237,VALID,0,VALID,100.766,VALID,338.655,VALID,23.2875,VALID,28,VALID,0,
2015-11-10, 09:16:04,VALID,918.226,VALID,0,VALID,99.9811,VALID,321.142,VALID,23.229,VALID,360,VALID,1.47773,
2015-11-10, 09:17:04,VALID,918.223,VALID,0,VALID,98.3649,VALID,309.753,VALID,23.1314,VALID,351,VALID,2.0832,
2015-11-10, 09:18:04,VALID,918.201,VALID,0,VALID,97.7093,VALID,289.446,VALID,23.0356,VALID,39,VALID,1.65625,
2015-11-10, 09:19:04,VALID,918.212,VALID,0,VALID,98.4107,VALID,267.958,VALID,23.0356,VALID,2,VALID,0,
2015-11-10, 09:20:04,VALID,918.184,VALID,0,VALID,98.5403,VALID,255.602,VALID,23.0746,VALID,259,VALID,0,
2015-11-10, 09:21:04,VALID,918.129,VALID,0,VALID,97.8999,VALID,250.66,VALID,23.0746,VALID,347,VALID,0,
2015-11-10, 09:22:04,VALID,918.137,VALID,0,VALID,98.5936,VALID,252.809,VALID,23.1314,VALID,347,VALID,0,
2015-11-10, 09:23:04,VALID,918.122,VALID,0,VALID,98.6699,VALID,265.487,VALID,23.2875,VALID,308,VALID,0,
2015-11-10, 09:24:04,VALID,918.108,VALID,0,VALID,97.5721,VALID,297.612,VALID,23.3869,VALID,264,VALID,0,
2015-11-10, 09:25:04,VALID,918.114,VALID,0,VALID,98.0448,VALID,299.438,VALID,23.5608,VALID,268,VALID,0,
2015-11-10, 09:26:04,VALID,918.104,VALID,0,VALID,95.7654,VALID,271.074,VALID,23.6193,VALID,256,VALID,0,
2015-11-10, 09:27:04,VALID,918.123,VALID,0,VALID,96.0474,VALID,270.537,VALID,23.6779,VALID,256,VALID,0,
2015-11-10, 09:28:04,VALID,918.116,VALID,0,VALID,95.7044,VALID,284.827,VALID,23.7169,VALID,298,VALID,0,
2015-11-10, 09:29:04,VALID,918.132,VALID,0,VALID,95.3994,VALID,296.108,VALID,23.7169,VALID,284,VALID,0,
2015-11-10, 09:30:04,VALID,918.134,VALID,0,VALID,94.7667,VALID,316.951,VALID,23.7364,VALID,339,VALID,0,
2015-11-10, 09:31:04,VALID,918.113,VALID,0,VALID,91.9155,VALID,324.257,VALID,23.7542,VALID,314,VALID,0,
2015-11-10, 09:32:04,VALID,918.124,VALID,0,VALID,87.5168,VALID,304.381,VALID,23.6779,VALID,301,VALID,0,
2015-11-10, 09:33:04,VALID,918.097,VALID,0,VALID,92.8456,VALID,291.595,VALID,23.6175,VALID,285,VALID,0,
2015-11-10, 09:34:04,VALID,918.081,VALID,0,VALID,89.9639,VALID,285.149,VALID,23.6193,VALID,282,VALID,0,
2015-11-10, 09:35:04,VALID,918.086,VALID,0,VALID,92.0527,VALID,281.388,VALID,23.6779,VALID,298,VALID,0,
2015-11-10, 09:36:04,VALID,918.081,VALID,0,VALID,89.72,VALID,279.24,VALID,23.6175,VALID,305,VALID,0,
2015-11-10, 09:37:04,VALID,918.041,VALID,0,VALID,87.5473,VALID,273.115,VALID,23.5998,VALID,331,VALID,0,
2015-11-10, 09:38:04,VALID,918.07,VALID,0,VALID,86.9527,VALID,263.446,VALID,23.5785,VALID,349,VALID,0,
2015-11-10, 09:39:04,VALID,918.061,VALID,0,VALID,89.8343,VALID,252.809,VALID,23.637,VALID,342,VALID,0,
2015-11-10, 09:40:04,VALID,918.072,VALID,0,VALID,87.0823,VALID,245.61,VALID,23.598,VALID,284,VALID,0,
2015-11-10, 09:41:04,VALID,918.083,VALID,0,VALID,85.5042,VALID,238.412,VALID,23.5004,VALID,290,VALID,0,
2015-11-10, 09:42:04,VALID,918.105,VALID,0,VALID,89.5065,VALID,237.552,VALID,23.5608,VALID,257,VALID,0,
2015-11-10, 09:43:04,VALID,918.075,VALID,0,VALID,89.0186,VALID,244.106,VALID,23.559,VALID,262,VALID,0,
2015-11-10, 09:44:04,VALID,918.122,VALID,0,VALID,86.3962,VALID,246.685,VALID,23.5199,VALID,247,VALID,0.00195313,
2015-11-10, 09:45:04,VALID,918.069,VALID,0,VALID,86.7164,VALID,259.685,VALID,23.4046,VALID,249,VALID,0,
2015-11-10, 09:46:04,VALID,918.068,VALID,0,VALID,90.0859,VALID,309.968,VALID,23.3248,VALID,254,VALID,0,
2015-11-10, 09:47:04,VALID,918.068,VALID,0,VALID,94.2635,VALID,615.96,VALID,23.3443,VALID,248,VALID,0,
2015-11-10, 09:48:04,VALID,918.026,VALID,0,VALID,88.0962,VALID,499.816,VALID,23.3638,VALID,260,VALID,0,
2015-11-10, 09:49:04,VALID,918.044,VALID,0,VALID,92.3424,VALID,617.357,VALID,23.5004,VALID,241,VALID,0,
2015-11-10, 09:50:04,VALID,918.053,VALID,0,VALID,90.9092,VALID,581.794,VALID,23.7542,VALID,282,VALID,0,
2015-11-10, 09:51:04,VALID,918.041,VALID,0,VALID,85.9083,VALID,378.73,VALID,23.889,VALID,348,VALID,0,
2015-11-10, 09:52:04,VALID,918.074,VALID,0,VALID,83.3011,VALID,343.167,VALID,24.0274,VALID,321,VALID,0,
2015-11-10, 09:53:04,VALID,918.044,VALID,0,VALID,81.8069,VALID,313.191,VALID,24.1055,VALID,280,VALID,0,
2015-11-10, 09:54:04,VALID,918.037,VALID,0,VALID,82.8055,VALID,297.612,VALID,24.0079,VALID,313,VALID,0,
2015-11-10, 09:55:04,VALID,918.039,VALID,0,VALID,83.08,VALID,300.298,VALID,24.0061,VALID,356,VALID,0,
2015-11-10, 09:56:04,VALID,918.048,VALID,0,VALID,81.7916,VALID,304.166,VALID,23.9884,VALID,302,VALID,0,
2015-11-10, 09:57:04,VALID,918.056,VALID,0,VALID,82.8132,VALID,307.174,VALID,23.928,VALID,292,VALID,0,
2015-11-10, 09:58:04,VALID,918.024,VALID,0,VALID,83.4078,VALID,320.175,VALID,24.0079,VALID,297,VALID,0,
2015-11-10, 09:59:04,VALID,918.064,VALID,0,VALID,83.7127,VALID,318.456,VALID,24.1464,VALID,7,VALID,0,
2015-11-10, 10:00:04,VALID,918.038,VALID,0,VALID,80.8844,VALID,306.315,VALID,24.1464,VALID,290,VALID,0,
2015-11-10, 10:01:04,VALID,918.021,VALID,0,VALID,81.1665,VALID,294.389,VALID,24.1055,VALID,283,VALID,0,
2015-11-10, 10:02:04,VALID,918.054,VALID,0,VALID,80.6405,VALID,279.992,VALID,24.1055,VALID,275,VALID,0,
2015-11-10, 10:03:04,VALID,918.034,VALID,0,VALID,81.8602,VALID,250.768,VALID,24.0683,VALID,289,VALID,0,
2015-11-10, 10:04:04,VALID,918.061,VALID,0,VALID,81.7459,VALID,236.693,VALID,23.8908,VALID,306,VALID,0,
2015-11-10, 10:05:04,VALID,918.037,VALID,0,VALID,82.9961,VALID,230.998,VALID,23.8713,VALID,306,VALID,0,
2015-11-10, 10:06:04,VALID,918.06,VALID,0,VALID,83.2706,VALID,231.858,VALID,23.9298,VALID,305,VALID,0,
2015-11-10, 10:07:04,VALID,918.083,VALID,0,VALID,82.2567,VALID,211.337,VALID,23.9884,VALID,305,VALID,0,
2015-11-10, 10:08:04,VALID,918.057,VALID,0,VALID,83.8957,VALID,195.65,VALID,24.0274,VALID,337,VALID,0,
2015-11-10, 10:09:04,VALID,918.096,VALID,0,VALID,82.8284,VALID,191.997,VALID,24.0665,VALID,350,VALID,0,
2015-11-10, 10:10:04,VALID,918.089,VALID,0,VALID,82.7446,VALID,189.634,VALID,24.1055,VALID,338,VALID,0,
2015-11-10, 10:11:04,VALID,918.1,VALID,0,VALID,80.7243,VALID,186.196,VALID,24.125,VALID,306,VALID,0,
2015-11-10, 10:12:04,VALID,918.103,VALID,0,VALID,81.3037,VALID,184.047,VALID,24.0256,VALID,305,VALID,0,
2015-11-10, 10:13:04,VALID,918.094,VALID,0,VALID,82.4244,VALID,182.757,VALID,24.086,VALID,305,VALID,0,
2015-11-10, 10:14:04,VALID,918.118,VALID,0,VALID,82.0356,VALID,182.113,VALID,23.9866,VALID,229,VALID,0,
2015-11-10, 10:15:04,VALID,918.119,VALID,0,VALID,82.2872,VALID,177.385,VALID,23.967,VALID,228,VALID,0,
2015-11-10, 10:16:04,VALID,918.123,VALID,0,VALID,83.1105,VALID,170.187,VALID,24.0274,VALID,303,VALID,0,
2015-11-10, 10:17:04,VALID,918.148,VALID,0,VALID,83.019,VALID,164.707,VALID,24.1055,VALID,303,VALID,0,
2015-11-10, 10:18:04,VALID,918.143,VALID,0,VALID,81.845,VALID,160.947,VALID,24.1445,VALID,268,VALID,0,
2015-11-10, 10:19:04,VALID,918.159,VALID,0,VALID,81.38,VALID,159.98,VALID,24.1232,VALID,263,VALID,0,
2015-11-10, 10:20:04,VALID,918.148,VALID,0,VALID,81.8298,VALID,159.55,VALID,24.1232,VALID,289,VALID,0,
2015-11-10, 10:21:04,VALID,918.135,VALID,0,VALID,81.4943,VALID,159.12,VALID,24.086,VALID,289,VALID,0,
2015-11-10, 10:22:04,VALID,918.152,VALID,0,VALID,82.5845,VALID,160.625,VALID,24.0451,VALID,279,VALID,0,
2015-11-10, 10:23:04,VALID,918.153,VALID,0,VALID,83.2629,VALID,165.459,VALID,24.1641,VALID,279,VALID,0,
2015-11-10, 10:24:04,VALID,918.144,VALID,0,VALID,82.6531,VALID,173.517,VALID,24.1232,VALID,310,VALID,0,
2015-11-10, 10:25:04,VALID,918.169,VALID,0,VALID,82.1347,VALID,182.435,VALID,24.1073,VALID,1,VALID,0,
2015-11-10, 10:26:04,VALID,918.141,VALID,0,VALID,83.0495,VALID,193.287,VALID,24.0292,VALID,1,VALID,0,
2015-11-10, 10:27:04,VALID,918.164,VALID,0,VALID,85.9311,VALID,205.965,VALID,24.0488,VALID,1,VALID,0,
2015-11-10, 10:28:04,VALID,918.156,VALID,0,VALID,85.6872,VALID,219.61,VALID,24.0665,VALID,356,VALID,0,
2015-11-10, 10:29:04,VALID,918.133,VALID,0,VALID,94.9725,VALID,226.164,VALID,24.1659,VALID,352,VALID,0,
2015-11-10, 10:30:04,VALID,918.148,VALID,0,VALID,85.7406,VALID,232.18,VALID,24.1055,VALID,352,VALID,0,
2015-11-10, 10:31:04,VALID,918.143,VALID,0.4,VALID,85.2069,VALID,241.313,VALID,24.0097,VALID,299,VALID,0,
2015-11-10, 10:32:04,VALID,918.104,VALID,0.4,VALID,85.5347,VALID,253.883,VALID,23.7755,VALID,299,VALID,0,
2015-11-10, 10:33:04,VALID,918.103,VALID,0.2,VALID,93.5622,VALID,268.388,VALID,23.6388,VALID,299,VALID,0,
2015-11-10, 10:34:04,VALID,918.082,VALID,0.2,VALID,95.7272,VALID,278.273,VALID,23.5217,VALID,302,VALID,0,
2015-11-10, 10:35:04,VALID,918.095,VALID,0,VALID,96.8479,VALID,287.727,VALID,23.465,VALID,310,VALID,0,
2015-11-10, 10:36:04,VALID,918.1,VALID,0,VALID,98.6241,VALID,297.397,VALID,23.4028,VALID,327,VALID,0,
2015-11-10, 10:37:04,VALID,918.09,VALID,0.2,VALID,99.6152,VALID,323.183,VALID,23.4632,VALID,327,VALID,0,
2015-11-10, 10:38:04,VALID,918.077,VALID,0,VALID,99.7829,VALID,327.266,VALID,23.5022,VALID,327,VALID,0,
2015-11-10, 10:39:04,VALID,918.085,VALID,0,VALID,99.0739,VALID,310.827,VALID,23.4827,VALID,299,VALID,0,
2015-11-10, 10:40:04,VALID,918.078,VALID,0,VALID,97.7932,VALID,299.438,VALID,23.4809,VALID,356,VALID,0,
2015-11-10, 10:41:04,VALID,918.082,VALID,0,VALID,97.3968,VALID,286.008,VALID,23.5004,VALID,356,VALID,0,
2015-11-10, 10:42:04,VALID,918.062,VALID,0,VALID,97.7246,VALID,279.562,VALID,23.5199,VALID,355,VALID,0,
2015-11-10, 10:43:04,VALID,918.055,VALID,0,VALID,97.0994,VALID,273.867,VALID,23.4809,VALID,355,VALID,0,
2015-11-10, 10:44:04,VALID,918.043,VALID,0,VALID,98.4793,VALID,272.148,VALID,23.5199,VALID,359,VALID,0,
2015-11-10, 10:45:04,VALID,918.028,VALID,0,VALID,99.0129,VALID,275.479,VALID,23.5395,VALID,4,VALID,0,
2015-11-10, 10:46:04,VALID,918.014,VALID,0,VALID,97.3129,VALID,291.058,VALID,23.4419,VALID,309,VALID,0,
2015-11-10, 10:47:04,VALID,918.036,VALID,0,VALID,98.1134,VALID,324.795,VALID,23.4827,VALID,342,VALID,0,
2015-11-10, 10:48:04,VALID,918.009,VALID,0,VALID,98.9672,VALID,373.573,VALID,23.4809,VALID,353,VALID,0,
2015-11-10, 10:49:04,VALID,918.004,VALID,0,VALID,99.0815,VALID,519.263,VALID,23.5004,VALID,16,VALID,0,
2015-11-10, 10:50:04,VALID,918.007,VALID,0,VALID,98.9596,VALID,523.238,VALID,23.559,VALID,17,VALID,0,
2015-11-10, 10:51:04,VALID,917.993,VALID,0,VALID,97.7551,VALID,467.584,VALID,23.559,VALID,38,VALID,0,
2015-11-10, 10:52:04,VALID,917.993,VALID,0,VALID,96.9317,VALID,472.741,VALID,23.5785,VALID,290,VALID,0,
2015-11-10, 10:53:04,VALID,917.969,VALID,0,VALID,97.9456,VALID,444.699,VALID,23.6566,VALID,290,VALID,0,
2015-11-10, 10:54:04,VALID,917.98,VALID,0,VALID,97.5416,VALID,361.002,VALID,23.7346,VALID,35,VALID,0,
2015-11-10, 10:55:04,VALID,917.963,VALID,0,VALID,96.9851,VALID,352.837,VALID,23.8127,VALID,35,VALID,0,
2015-11-10, 10:56:04,VALID,917.965,VALID,0,VALID,95.3537,VALID,354.126,VALID,23.8322,VALID,4,VALID,0,
2015-11-10, 10:57:04,VALID,917.939,VALID,0,VALID,96.2228,VALID,353.267,VALID,23.8536,VALID,3,VALID,0,
2015-11-10, 10:58:04,VALID,917.933,VALID,0,VALID,96.0245,VALID,356.812,VALID,23.9121,VALID,3,VALID,0,
2015-11-10, 10:59:04,VALID,917.894,VALID,0,VALID,96.3829,VALID,378.408,VALID,24.0079,VALID,3,VALID,0,
2015-11-10, 11:00:04,VALID,917.882,VALID,0,VALID,96.055,VALID,391.945,VALID,24.0469,VALID,3,VALID,0,
2015-11-10, 11:01:04,VALID,917.845,VALID,0,VALID,95.651,VALID,416.872,VALID,24.0079,VALID,3,VALID,0,
2015-11-10, 11:02:04,VALID,917.84,VALID,0,VALID,96.642,VALID,507.659,VALID,24.1269,VALID,3,VALID,0,
2015-11-10, 11:03:04,VALID,917.843,VALID,0,VALID,88.0352,VALID,587.273,VALID,24.086,VALID,344,VALID,0,
2015-11-10, 11:04:04,VALID,917.805,VALID,0,VALID,94.7743,VALID,708.037,VALID,24.2421,VALID,338,VALID,0,
2015-11-10, 11:05:04,VALID,917.793,VALID,0,VALID,97.1299,VALID,710.831,VALID,24.4374,VALID,343,VALID,0,
2015-11-10, 11:06:04,VALID,917.794,VALID,0,VALID,85.2755,VALID,436.426,VALID,24.5173,VALID,325,VALID,0,
2015-11-10, 11:07:04,VALID,917.755,VALID,0,VALID,84.78,VALID,351.225,VALID,24.4941,VALID,52,VALID,0,
2015-11-10, 11:08:04,VALID,917.751,VALID,0,VALID,86.4419,VALID,349.076,VALID,24.5545,VALID,356,VALID,0,
2015-11-10, 11:09:04,VALID,917.737,VALID,0,VALID,83.8881,VALID,363.151,VALID,24.574,VALID,333,VALID,0,
2015-11-10, 11:10:04,VALID,917.727,VALID,0,VALID,83.4917,VALID,372.391,VALID,24.5564,VALID,343,VALID,0,
2015-11-10, 11:11:04,VALID,917.711,VALID,0,VALID,82.7217,VALID,542.685,VALID,24.4569,VALID,350,VALID,0,
2015-11-10, 11:12:04,VALID,917.683,VALID,0,VALID,84.7571,VALID,401.615,VALID,24.3788,VALID,359,VALID,0,
2015-11-10, 11:13:04,VALID,917.663,VALID,0,VALID,89.9868,VALID,367.664,VALID,24.3788,VALID,350,VALID,0,
2015-11-10, 11:14:04,VALID,917.662,VALID,0,VALID,83.0342,VALID,354.771,VALID,24.3007,VALID,301,VALID,0,
2015-11-10, 11:15:04,VALID,917.648,VALID,0,VALID,82.8894,VALID,355.63,VALID,24.2031,VALID,307,VALID,0,
2015-11-10, 11:16:04,VALID,917.639,VALID,0,VALID,85.428,VALID,356.49,VALID,24.125,VALID,289,VALID,0,
2015-11-10, 11:17:04,VALID,917.615,VALID,0,VALID,83.3392,VALID,345.531,VALID,24.0469,VALID,274,VALID,0,
2015-11-10, 11:18:04,VALID,917.658,VALID,0,VALID,93.181,VALID,314.373,VALID,24.125,VALID,351,VALID,0,
2015-11-10, 11:19:04,VALID,917.661,VALID,0,VALID,90.3604,VALID,260.437,VALID,24.2226,VALID,266,VALID,0,
2015-11-10, 11:20:04,VALID,917.673,VALID,0,VALID,87.3796,VALID,209.618,VALID,24.3416,VALID,266,VALID,0,
2015-11-10, 11:21:04,VALID,917.703,VALID,0,VALID,86.724,VALID,172.765,VALID,24.4178,VALID,266,VALID,0,
2015-11-10, 11:22:04,VALID,917.685,VALID,0,VALID,84.1396,VALID,154.071,VALID,24.4569,VALID,5,VALID,0,